Погода в Томске

Погода в Томске : погода сейчас, прогноз погоды и архив. Всё, что Вы хотите узнать о погоде в Томске!

Хотите узнать прогноз погоды в Томске? Тогда Вам сюда: Погода в Томске

Поиск расширенной информации на нашем сайте:

Другие новости

Новости СМИ2

Главная страница сайта

Новости сайта

03.07.2017

Напоминаем, что на нашем специализированном сайте Метеоцентр.Азия вы можете получить высокодетализированные автоматические прогнозы погоды по пунктам России, СНГ и мира в авиационном формате (включающие направление и скорость ветра, видимость, явления погоды, количество и форму облачности, нижнюю и верхнюю границу облачности).


Погода в Томске - сегодня

Время (UTC), дата Ветер
(°,м/с) 
Видим.   Явления Облачность Т
(°С)
Тd
(°С)
f(%) Тe
(°С)
Pmin
(гПа)
dP
(гПа)
Po
(мм)
O2
(г/м3)
Тmin Tmax R s Состояние
почвы
00 18.11.17 тихо ()   20000 м  слаб. снег  10/10 300 м 
[Ns]
-2.9 -3.9 93 -3  1022.8  -0.5  754  307  -7.8    16  равномерный
сухой снег
100% 
03 18.11.17 тихо ()   20000 м  слаб. снег  10/10 420 м 
[Ns]
-2.1 -2.8 95 -2  1022.6  -0.1  754  306           
06 18.11.17 160 (Ю) 20000 м  слаб. снег  10/10 270 м 
[Frnb|Ns]
-1 -2.3 91 1021.6  -1  753  305           
09 18.11.17 140 (ЮВ) 20000 м  слаб. ливневой снег  10/10 300 м кучево-дожд. 
[Cb cap]
-0.7 -2.9 85 1020.4  -1.1  752  304           
12 18.11.17 150 (ЮВ) 20000 м  {ливн. осадки, снег}  10/4 600 м средняя 
[Sc|Ac trans]
-1.8 -4.7 81 -1  1019.2  -1.2  751  305    -0.5  0.5     
15 18.11.17 160 (Ю) 20000 м    10/0 средняя 
[Ac und]
-2 -4.3 84 -1  1017  -2.3  749  305           
18 18.11.17 130 (ЮВ) 20000 м    8/0 средняя 
[Ac As]
-1.8 -5 79 -1  1014.5  -2.4  748  304           
21 18.11.17 190 (Ю) 10 км  слаб. ливневой снег  10/10 240 м кучево-дожд. 
[Cb cap]
-2.3 -3.3 93 -2  1013.3  -1.2  747  304           
00 19.11.17 210 (ЮЗ) 4000 м  слаб. ливневой снег  10/10 210 м кучево-дожд. 
[Cb cap]
-1.6 -2 97 -3  1014  0.7  747  303  -3    16  равномерный
сухой снег
100% 
03 19.11.17 210 (ЮЗ) 20000 м  {ливн. осадки}  10/10 400 м 
[Sc]
-1.4 -2.8 90 -2  1016.5  2.5  749  304           
06 19.11.17 220 (ЮЗ) 20000 м  слаб. ливневой снег  10/10 240 м кучево-дожд. 
[Cb cap]
-0.4 -1.7 91 1018.5  751  303           
09 19.11.17 270 (З) 10 км  слаб. ливневой снег  10/10 360 м кучево-дожд. 
[Cb cap]
-1.8 -3.1 91 -1  1021.1  2.5  753  306           
12 19.11.17 240 (ЮЗ) 20000 м  слаб. ливневой снег  10/10 240 м кучево-дожд. 
[Cb cap]
-3.4 -4.9 89 -3  1023.8  2.6  755  308    -0.1     
15 19.11.17 240 (ЮЗ) 20000 м    10/10 420 м 
[Sc]
-5.3 -8 81 -5  1026  756  311           
18 19.11.17 220 (ЮЗ) 20000 м    10/10 420 м 
[Sc]
-6.6 -9.1 82 -6  1027.1  757  313           
21 19.11.17 210 (ЮЗ) 20000 м    10/10 300 м 
[Sc]
-8.7 -9.8 92 -8  1027.8  0.5  757  316           
00 20.11.17 тихо ()   20000 м  слаб. снег  10/4 600 м средняя 
[Sc|As op]
-8.7 -9.4 95 -9  1028.4  0.7  758  316  -8.9    0.3  15  равномерный
сухой снег
100% 
03 20.11.17 тихо ()   20000 м  слаб. снег  10/6 800 м средняя 
[Sc|Ac und]
-9 -9.7 95 -9  1028.8  0.3  758  317  -9.6         
06 20.11.17 200 (Ю) 20000 м  слаб. снег  10/4 600 м средняя, верхняя 
[Sc|Ac trans|Cc]
-5.7 -7 91 -5  1029.2  0.6  758  313           
09 20.11.17 190 (Ю) 20000 м  слаб. снег  10/10 300 м 
[Frnb|Ns]
-4.6 -5.8 91 -4  1029.6  0.5  759  312           
12 20.11.17 200 (Ю) 20000 м  слаб. снег  10/10 300 м 
[Frnb|Ns]
-4.2 -4.9 95 -4  1030.2  0.6  759  311    -4.2  0.8     
15 20.11.17 200 (Ю) 20000 м  {снег}  10/10 480 м 
[Sc diur, vesp]
-3.6 -4.3 95 -3  1030.8  0.6  760  311           
18 20.11.17 200 (Ю) 20000 м  слаб. снег  10/10 300 м 
[Frnb|Ns]
-3.2 -3.8 96 -3  1030.6  -0.2  759  310           
21 20.11.17 200 (Ю) 20000 м  слаб. снег  10/10 300 м 
[Ns]
-3.2 -3.9 95 -3  1029.8  -0.7  759  310           
00 21.11.17 190 (Ю) 20000 м  слаб. снег  10/10 240 м 
[Frnb|Ns]
-3.1 -3.6 96 -3  1029.1  -0.7  758  310  -4.2    18  равномерный
сухой снег
100% 
Время (UTC), дата Ветер
(°,м/с) 
Видим.   Явления Облачность Т
(°С)
Тd
(°С)
f(%) Тe
(°С)
Pmin
(гПа)
dP
(гПа)
Po
(мм)
O2
(г/м3)
Тmin Tmax R s Состояние
почвы

Для получения пояснительной информации подведите курсор к названию столбца.

ПОГОДА в Томске - архив

Всё, что Вы хотите узнать о погоде в Томске - удобно и подробно!

Выберите нужную дату (начиная с 1 января 2015* года) и нажмите кнопку "Найти".
Будут отображены архивные сводки погоды по пункту Томск, начиная с указанной даты.


Отображать данные в формате CSV (для использования в таблицах Excel)


Внимание! Наш архив погоды предназначен исключительно для личного некоммерческого использования в познавательных целях. Если Вам необходимы официальные справки о состоянии погоды (для производственных, юридических, коммерческих и т.п. целей), обращайтесь в органы Росгидромета.

*Примечание: данная дата относится к архиву по метеостанциям СССР (Россия, СНГ, Балтия).
Архив по метеостанциям Зарубежной Европы и Азии (кроме Китая) хранится 10 дней, по другим регионам земного шара (Китай, Африка, Америка, Австралия, Океания) - 1 день.

Томск - район местоположения метеостанции


Название, широта, долгота, высота метеостанции:
Томск 56.5°ш. 84.9°д. 139 м над ур. моря [Российская Федерация]

Дополнительная информация

В oтличие oт бoльшинства пoгoдных сайтoв мы публикуем пoдрoбную метеoинфoрмацию в детальнoм прoфессиoнальнoм фoрмате.

Характеристики температуры и влажнoсти вoздуха измеряются на высoте 2 м в тени вдали oт зданий и деревьев.
Скoрoсть ветра измеряется на высoте 10 м (на урoвне рoста челoвека скoрoсть ветра ниже в 1.5-2 раза). Если метеoстанция нахoдится в гoрoде или в лесу, тo скoрoсть ветра занижена на 2-4 м/с пo сравнению с oткрытым местoм. Скoрoсть ветра над акватoриями крупных рек и oзёр, а также на вершинах хoлмoв на 2-5 м/с выше, чем в oбычных услoвиях.
Атмoсфернoе давление в разных тoчках местнoсти мoжет значительнo oтличаться oт давления на метеoстанции, в зависимoсти oт услoвий рельефа (при пoдъёме на 10 м давление пoнижается примернo на 1 мм рт.ст.).